QPF
0.00 0.00 0.00 0.00 0.01 0.01 0.00 0.00 0.00 0.00 0.00 0.00 0.00 0.00 0.00 0.01 0.03 0.04 0.04 0.03 0.00 0.02 0.02 0.02 0.02 0.02 0.03 0.03 0.04 0.04 0.03 0.04 0.04 0.04 0.05 0.06 0.07 0.06 0.06 0.07 0.08 0.10 0.10 0.09 0.06 0.06 0.05 0.05 0.04
0.00 0.00 0.00 0.00 0.01 0.00 0.00 0.00 0.00 0.00 0.00 0.00 0.00 0.00 0.00 0.00 0.00 0.02 0.03 0.02 0.00 0.01 0.02 0.01 0.01 0.02 0.02 0.03 0.04 0.03 0.02 0.03 0.03 0.04 0.04 0.05 0.06 0.08 0.07 0.05 0.05 0.07 0.07 0.06 0.06 0.05 0.04 0.03 0.03
0.00 0.00 0.00 0.00 0.00 0.00 0.01 0.00 0.00 0.00 0.00 0.00 0.00 0.00 0.00 0.01 0.01 0.02 0.01 0.00 0.00 0.00 0.00 0.01 0.01 0.02 0.02 0.02 0.03 0.03 0.03 0.03 0.04 0.04 0.05 0.07 0.06 0.08 0.09 0.08 0.05 0.04 0.05 0.06 0.06 0.04 0.04 0.03 0.03
0.00 0.00 0.00 0.00 0.00 0.00 0.00 0.00 0.00 0.00 0.00 0.00 0.00 0.00 0.00 0.00 0.00 0.00 0.00 0.00 0.00 0.01 0.01 0.00 0.01 0.02 0.02 0.02 0.02 0.03 0.04 0.04 0.05 0.05 0.06 0.06 0.05 0.06 0.07 0.07 0.06 0.05 0.05 0.05 0.05 0.04 0.05 0.05 0.04
0.00 0.00 0.00 0.00 0.00 0.00 0.00 0.00 0.00 0.00 0.00 0.00 0.00 0.01 0.01 0.01 0.00 0.00 0.00 0.00 0.00 0.01 0.01 0.00 0.01 0.01 0.01 0.01 0.01 0.02 0.04 0.04 0.06 0.06 0.07 0.06 0.05 0.06 0.05 0.06 0.07 0.07 0.06 0.06 0.05 0.05 0.05 0.04 0.03
0.00 0.00 0.00 0.00 0.00 0.00 0.00 0.00 0.00 0.00 0.00 0.00 0.01 0.03 0.02 0.01 0.00 0.00 0.00 0.00 0.00 0.01 0.01 0.00 0.00 0.01 0.01 0.01 0.01 0.02 0.03 0.04 0.05 0.05 0.05 0.05 0.05 0.04 0.04 0.05 0.07 0.07 0.06 0.04 0.04 0.06 0.04 0.03 0.04
0.00 0.00 0.00 0.00 0.00 0.00 0.00 0.00 0.00 0.00 0.00 0.00 0.00 0.01 0.02 0.02 0.00 0.00 0.00 0.00 0.01 0.02 0.01 0.01 0.01 0.01 0.01 0.01 0.01 0.03 0.03 0.03 0.03 0.03 0.03 0.02 0.03 0.04 0.03 0.04 0.05 0.04 0.04 0.02 0.02 0.02 0.02 0.02 0.02
0.00 0.00 0.00 0.00 0.00 0.00 0.00 0.00 0.00 0.00 0.00 0.00 0.00 0.00 0.01 0.01 0.00 0.00 0.01 0.01 0.02 0.03 0.02 0.02 0.01 0.02 0.02 0.02 0.01 0.01 0.02 0.02 0.02 0.03 0.02 0.02 0.04 0.03 0.03 0.04 0.06 0.07 0.06 0.03 0.02 0.02 0.02 0.02 0.02
0.00 0.00 0.00 0.00 0.00 0.00 0.00 0.00 0.00 0.00 0.03 0.03 0.00 0.00 0.00 0.00 0.00 0.01 0.03 0.03 0.03 0.03 0.02 0.02 0.02 0.02 0.04 0.04 0.01 0.02 0.02 0.03 0.05 0.05 0.05 0.10 0.16 0.08 0.06 0.04 0.05 0.06 0.06 0.04 0.03 0.03 0.03 0.03 0.01
0.00 0.00 0.00 0.00 0.00 0.00 0.00 0.00 0.00 0.01 0.02 0.03 0.00 0.00 0.00 0.00 0.00 0.02 0.04 0.05 0.05 0.03 0.02 0.03 0.02 0.02 0.05 0.06 0.04 0.08 0.07 0.06 0.10 0.09 0.09 0.13 0.15 0.14 0.07 0.04 0.04 0.05 0.05 0.04 0.04 0.04 0.04 0.04 0.04
0.00 0.00 0.00 0.00 0.00 0.00 0.00 0.00 0.00 0.00 0.00 0.00 0.00 0.00 0.00 0.00 0.01 0.02 0.04 0.05 0.05 0.03 0.02 0.02 0.03 0.04 0.05 0.07 0.06 0.06 0.08 0.07 0.08 0.10 0.09 0.11 0.08 0.07 0.06 0.06 0.06 0.05 0.06 0.06 0.05 0.08 0.07 0.06 0.06
0.00 0.00 0.00 0.00 0.00 0.00 0.00 0.00 0.00 0.00 0.00 0.00 0.00 0.00 0.00 0.00 0.01 0.03 0.05 0.06 0.09 0.04 0.02 0.01 0.02 0.03 0.06 0.07 0.07 0.04 0.05 0.05 0.05 0.07 0.05 0.06 0.08 0.07 0.07 0.09 0.10 0.11 0.10 0.10 0.08 0.09 0.07 0.05 0.03
0.00 0.00 0.00 0.00 0.00 0.00 0.00 0.00 0.00 0.00 0.00 0.00 0.00 0.00 0.00 0.01 0.01 0.01 0.03 0.04 0.08 0.06 0.04 0.02 0.02 0.03 0.05 0.05 0.06 0.03 0.03 0.03 0.04 0.05 0.04 0.04 0.06 0.06 0.07 0.07 0.09 0.11 0.06 0.04 0.06 0.05 0.05 0.05 0.02
0.00 0.00 0.00 0.00 0.00 0.00 0.00 0.01 0.00 0.00 0.00 0.00 0.00 0.00 0.00 0.01 0.02 0.02 0.02 0.05 0.06 0.07 0.04 0.02 0.02 0.04 0.06 0.07 0.07 0.04 0.02 0.03 0.04 0.05 0.05 0.05 0.07 0.08 0.09 0.06 0.06 0.06 0.03 0.03 0.03 0.04 0.05 0.05 0.03
0.00 0.00 0.00 0.00 0.00 0.00 0.01 0.01 0.00 0.00 0.00 0.00 0.00 0.00 0.00 0.00 0.01 0.04 0.03 0.04 0.06 0.06 0.04 0.02 0.03 0.04 0.07 0.09 0.08 0.06 0.04 0.03 0.04 0.04 0.04 0.05 0.06 0.08 0.10 0.09 0.06 0.04 0.03 0.04 0.03 0.03 0.04 0.06 0.04
0.00 0.00 0.01 0.02 0.00 0.00 0.01 0.01 0.00 0.00 0.00 0.00 0.00 0.00 0.00 0.00 0.01 0.02 0.04 0.04 0.06 0.05 0.04 0.02 0.02 0.04 0.07 0.10 0.11 0.10 0.07 0.06 0.06 0.05 0.04 0.04 0.06 0.06 0.09 0.08 0.06 0.05 0.04 0.03 0.04 0.05 0.05 0.07 0.06
0.00 0.00 0.00 0.01 0.00 0.00 0.00 0.01 0.00 0.00 0.00 0.00 0.00 0.00 0.00 0.01 0.01 0.01 0.02 0.03 0.07 0.05 0.03 0.04 0.05 0.07 0.06 0.08 0.10 0.10 0.08 0.08 0.06 0.05 0.05 0.04 0.04 0.05 0.07 0.08 0.09 0.06 0.06 0.04 0.04 0.07 0.08 0.09 0.08
0.00 0.00 0.00 0.00 0.00 0.00 0.01 0.00 0.00 0.00 0.00 0.00 0.00 0.00 0.01 0.01 0.01 0.01 0.01 0.02 0.05 0.04 0.04 0.05 0.05 0.07 0.08 0.08 0.08 0.10 0.11 0.08 0.06 0.06 0.07 0.07 0.06 0.05 0.07 0.08 0.07 0.05 0.07 0.08 0.08 0.09 0.09 0.10 0.09
0.00 0.01 0.00 0.00 0.00 0.00 0.01 0.01 0.00 0.00 0.00 0.00 0.00 0.00 0.01 0.00 0.00 0.01 0.01 0.02 0.02 0.03 0.04 0.04 0.04 0.07 0.10 0.11 0.10 0.11 0.11 0.10 0.08 0.07 0.08 0.08 0.07 0.08 0.09 0.08 0.09 0.06 0.08 0.08 0.07 0.09 0.10 0.09 0.08
0.00 0.00 0.00 0.00 0.00 0.00 0.01 0.03 0.01 0.01 0.00 0.00 0.00 0.00 0.00 0.00 0.00 0.01 0.01 0.01 0.02 0.02 0.03 0.04 0.05 0.06 0.08 0.10 0.12 0.11 0.09 0.07 0.08 0.09 0.11 0.09 0.06 0.07 0.07 0.10 0.08 0.07 0.09 0.08 0.08 0.11 0.12 0.10 0.08
0.00 0.00 0.00 0.00 0.00 0.00 0.00 0.05 0.06 0.03 0.00 0.00 0.00 0.00 0.01 0.00 0.00 0.01 0.02 0.02 0.03 0.03 0.03 0.04 0.06 0.06 0.07 0.09 0.10 0.09 0.09 0.07 0.10 0.11 0.10 0.08 0.06 0.04 0.05 0.06 0.07 0.08 0.06 0.10 0.10 0.12 0.15 0.16 0.11
0.00 0.00 0.00 0.00 0.00 0.00 0.00 0.02 0.04 0.02 0.00 0.00 0.00 0.00 0.00 0.00 0.00 0.00 0.01 0.02 0.04 0.04 0.03 0.03 0.05 0.05 0.06 0.08 0.07 0.08 0.09 0.09 0.09 0.09 0.10 0.10 0.08 0.06 0.05 0.04 0.06 0.07 0.06 0.11 0.07 0.11 0.13 0.17 0.14
0.00 0.00 0.00 0.00 0.00 0.00 0.00 0.01 0.01 0.01 0.01 0.00 0.00 0.01 0.00 0.00 0.00 0.00 0.00 0.01 0.02 0.04 0.04 0.04 0.05 0.05 0.06 0.07 0.06 0.08 0.09 0.10 0.09 0.07 0.09 0.10 0.11 0.09 0.06 0.07 0.10 0.10 0.09 0.09 0.09 0.12 0.10 0.11 0.11
0.00 0.00 0.00 0.00 0.00 0.00 0.00 0.01 0.02 0.02 0.02 0.02 0.01 0.00 0.00 0.00 0.00 0.00 0.00 0.01 0.02 0.03 0.06 0.06 0.05 0.05 0.06 0.07 0.06 0.07 0.08 0.09 0.10 0.10 0.10 0.09 0.10 0.10 0.10 0.11 0.14 0.13 0.11 0.09 0.10 0.11 0.11 0.13 0.15
0.00 0.00 0.00 0.00 0.00 0.00 0.00 0.01 0.01 0.00 0.01 0.02 0.02 0.00 0.00 0.00 0.00 0.00 0.00 0.01 0.02 0.03 0.06 0.08 0.06 0.06 0.06 0.06 0.05 0.06 0.07 0.09 0.09 0.10 0.11 0.10 0.10 0.11 0.11 0.11 0.14 0.13 0.11 0.11 0.14 0.14 0.14 0.15 0.14
0.00 0.00 0.00 0.00 0.01 0.01 0.01 0.01 0.01 0.00 0.00 0.01 0.02 0.00 0.00 0.00 0.00 0.00 0.00 0.00 0.01 0.03 0.05 0.06 0.05 0.05 0.05 0.06 0.05 0.05 0.07 0.08 0.08 0.10 0.09 0.10 0.08 0.07 0.08 0.09 0.11 0.10 0.10 0.09 0.13 0.11 0.12 0.12 0.11
0.00 0.00 0.00 0.00 0.00 0.01 0.01 0.01 0.02 0.01 0.00 0.00 0.00 0.00 0.00 0.00 0.00 0.01 0.01 0.00 0.01 0.02 0.02 0.02 0.02 0.03 0.04 0.05 0.07 0.06 0.06 0.07 0.08 0.08 0.08 0.08 0.09 0.07 0.07 0.09 0.11 0.13 0.13 0.11 0.12 0.12 0.11 0.12 0.09
0.00 0.00 0.00 0.00 0.00 0.00 0.01 0.01 0.03 0.01 0.00 0.00 0.00 0.00 0.00 0.00 0.00 0.00 0.00 0.00 0.01 0.01 0.01 0.02 0.02 0.02 0.03 0.04 0.05 0.05 0.04 0.05 0.07 0.07 0.08 0.08 0.08 0.08 0.08 0.09 0.11 0.11 0.11 0.11 0.13 0.11 0.10 0.10 0.09
0.00 0.00 0.00 0.00 0.00 0.00 0.01 0.02 0.02 0.02 0.01 0.00 0.00 0.00 0.00 0.00 0.00 0.01 0.01 0.00 0.01 0.01 0.02 0.03 0.02 0.02 0.03 0.03 0.03 0.04 0.03 0.03 0.05 0.06 0.06 0.07 0.07 0.07 0.07 0.08 0.09 0.08 0.08 0.10 0.11 0.09 0.09 0.08 0.09
0.00 0.00 0.00 0.00 0.00 0.00 0.00 0.02 0.02 0.02 0.02 0.01 0.01 0.00 0.00 0.00 0.00 0.00 0.00 0.00 0.00 0.01 0.02 0.02 0.02 0.02 0.02 0.03 0.03 0.03 0.03 0.03 0.04 0.06 0.07 0.06 0.06 0.06 0.06 0.06 0.06 0.06 0.08 0.09 0.08 0.05 0.05 0.06 0.06
MSLP
1003.14 1003.81 1004.73 1005.78 1006.80 1007.68 1008.33 1008.73 1008.91 1008.95 1008.93 1008.93 1008.99 1009.14 1009.32 1009.52 1009.68 1009.80 1009.88 1009.99 1010.17 1010.47 1010.92 1011.51 1012.17 1012.82 1013.39 1013.79 1013.99 1014.01 1013.90 1013.71 1013.54 1013.44 1013.44 1013.55 1013.73 1013.95 1014.17 1014.37 1014.53 1014.67 1014.81 1014.96 1015.14 1015.33 1015.52 1015.69 1015.83
1003.43 1004.35 1005.47 1006.64 1007.71 1008.55 1009.09 1009.33 1009.32 1009.15 1008.94 1008.77 1008.71 1008.76 1008.89 1009.07 1009.25 1009.42 1009.58 1009.78 1010.07 1010.48 1011.04 1011.71 1012.43 1013.13 1013.70 1014.09 1014.28 1014.26 1014.11 1013.90 1013.70 1013.59 1013.58 1013.67 1013.84 1014.05 1014.25 1014.44 1014.59 1014.73 1014.89 1015.06 1015.27 1015.50 1015.73 1015.93 1016.09
1003.79 1004.92 1006.21 1007.47 1008.56 1009.35 1009.79 1009.89 1009.72 1009.39 1009.03 1008.75 1008.59 1008.58 1008.68 1008.84 1009.04 1009.24 1009.45 1009.70 1010.05 1010.51 1011.11 1011.81 1012.56 1013.25 1013.82 1014.21 1014.38 1014.38 1014.24 1014.04 1013.86 1013.76 1013.76 1013.85 1014.00 1014.18 1014.34 1014.49 1014.62 1014.75 1014.91 1015.11 1015.36 1015.63 1015.90 1016.14 1016.31
1004.17 1005.45 1006.83 1008.14 1009.22 1009.96 1010.31 1010.31 1010.03 1009.62 1009.18 1008.84 1008.63 1008.59 1008.66 1008.82 1009.01 1009.21 1009.43 1009.70 1010.05 1010.53 1011.12 1011.81 1012.53 1013.21 1013.76 1014.15 1014.34 1014.37 1014.29 1014.16 1014.04 1013.99 1014.02 1014.11 1014.24 1014.37 1014.49 1014.59 1014.68 1014.80 1014.96 1015.19 1015.47 1015.78 1016.07 1016.32 1016.50
1004.53 1005.87 1007.28 1008.57 1009.60 1010.28 1010.57 1010.51 1010.20 1009.76 1009.31 1008.97 1008.77 1008.72 1008.79 1008.93 1009.10 1009.29 1009.49 1009.74 1010.08 1010.52 1011.08 1011.73 1012.41 1013.05 1013.59 1013.97 1014.21 1014.30 1014.30 1014.27 1014.25 1014.27 1014.35 1014.45 1014.56 1014.65 1014.72 1014.76 1014.82 1014.92 1015.09 1015.33 1015.63 1015.97 1016.28 1016.52 1016.67
1004.82 1006.13 1007.48 1008.69 1009.65 1010.26 1010.51 1010.44 1010.15 1009.75 1009.37 1009.08 1008.92 1008.90 1008.98 1009.12 1009.28 1009.44 1009.61 1009.83 1010.13 1010.54 1011.05 1011.64 1012.27 1012.87 1013.39 1013.78 1014.06 1014.22 1014.32 1014.39 1014.47 1014.59 1014.72 1014.84 1014.94 1015.00 1015.02 1015.03 1015.05 1015.13 1015.30 1015.55 1015.87 1016.21 1016.51 1016.73 1016.84
1005.03 1006.22 1007.43 1008.52 1009.36 1009.90 1010.12 1010.08 1009.86 1009.57 1009.30 1009.11 1009.04 1009.08 1009.18 1009.33 1009.48 1009.63 1009.78 1009.98 1010.26 1010.63 1011.11 1011.65 1012.23 1012.78 1013.27 1013.66 1013.96 1014.18 1014.35 1014.52 1014.70 1014.88 1015.07 1015.22 1015.32 1015.37 1015.36 1015.33 1015.34 1015.41 1015.57 1015.83 1016.15 1016.48 1016.76 1016.94 1017.00
1005.15 1006.17 1007.19 1008.10 1008.80 1009.25 1009.47 1009.48 1009.36 1009.21 1009.08 1009.04 1009.08 1009.20 1009.36 1009.53 1009.70 1009.85 1010.02 1010.22 1010.50 1010.86 1011.31 1011.83 1012.35 1012.86 1013.30 1013.67 1013.96 1014.20 1014.42 1014.64 1014.87 1015.12 1015.34 1015.52 1015.63 1015.67 1015.65 1015.62 1015.62 1015.69 1015.85 1016.11 1016.42 1016.73 1016.97 1017.10 1017.11
1005.23 1006.03 1006.82 1007.52 1008.07 1008.44 1008.64 1008.71 1008.71 1008.71 1008.75 1008.86 1009.03 1009.25 1009.48 1009.71 1009.91 1010.11 1010.31 1010.55 1010.86 1011.24 1011.69 1012.18 1012.67 1013.12 1013.50 1013.81 1014.06 1014.27 1014.49 1014.72 1014.98 1015.25 1015.50 1015.69 1015.82 1015.87 1015.86 1015.83 1015.83 1015.91 1016.08 1016.33 1016.62 1016.90 1017.11 1017.20 1017.17
1005.31 1005.88 1006.43 1006.91 1007.30 1007.57 1007.75 1007.88 1008.00 1008.15 1008.35 1008.61 1008.91 1009.24 1009.56 1009.85 1010.12 1010.38 1010.64 1010.95 1011.32 1011.74 1012.21 1012.69 1013.14 1013.52 1013.82 1014.05 1014.23 1014.39 1014.55 1014.76 1015.00 1015.27 1015.52 1015.73 1015.87 1015.93 1015.94 1015.93 1015.95 1016.04 1016.21 1016.45 1016.72 1016.97 1017.15 1017.20 1017.14
1005.44 1005.79 1006.12 1006.39 1006.61 1006.78 1006.94 1007.11 1007.32 1007.59 1007.93 1008.32 1008.74 1009.17 1009.57 1009.95 1010.29 1010.63 1010.98 1011.37 1011.81 1012.29 1012.78 1013.25 1013.66 1013.99 1014.21 1014.35 1014.44 1014.51 1014.61 1014.75 1014.96 1015.20 1015.44 1015.65 1015.80 1015.89 1015.92 1015.94 1015.98 1016.07 1016.24 1016.46 1016.71 1016.93 1017.08 1017.12 1017.05
1005.68 1005.84 1005.96 1006.04 1006.11 1006.18 1006.30 1006.48 1006.75 1007.11 1007.55 1008.04 1008.56 1009.06 1009.55 1009.99 1010.41 1010.83 1011.27 1011.74 1012.25 1012.78 1013.30 1013.77 1014.15 1014.42 1014.58 1014.64 1014.64 1014.63 1014.65 1014.73 1014.88 1015.09 1015.31 1015.52 1015.68 1015.79 1015.85 1015.89 1015.94 1016.04 1016.19 1016.39 1016.61 1016.81 1016.94 1016.97 1016.91
1006.06 1006.07 1006.01 1005.93 1005.86 1005.84 1005.90 1006.07 1006.36 1006.77 1007.26 1007.81 1008.38 1008.94 1009.48 1009.98 1010.47 1010.95 1011.46 1012.00 1012.56 1013.13 1013.67 1014.14 1014.50 1014.74 1014.84 1014.85 1014.79 1014.73 1014.69 1014.72 1014.83 1015.00 1015.20 1015.40 1015.56 1015.69 1015.77 1015.83 1015.89 1015.99 1016.13 1016.31 1016.50 1016.67 1016.78 1016.82 1016.77
1006.58 1006.47 1006.29 1006.08 1005.89 1005.78 1005.79 1005.93 1006.20 1006.61 1007.11 1007.67 1008.25 1008.83 1009.39 1009.93 1010.45 1010.98 1011.53 1012.10 1012.69 1013.28 1013.82 1014.29 1014.65 1014.87 1014.97 1014.96 1014.89 1014.81 1014.75 1014.76 1014.84 1014.98 1015.16 1015.34 1015.51 1015.64 1015.74 1015.81 1015.89 1015.98 1016.10 1016.26 1016.42 1016.57 1016.67 1016.71 1016.68
1007.20 1007.01 1006.74 1006.44 1006.18 1006.00 1005.95 1006.04 1006.28 1006.65 1007.11 1007.64 1008.20 1008.76 1009.31 1009.85 1010.39 1010.93 1011.48 1012.06 1012.65 1013.23 1013.77 1014.23 1014.59 1014.83 1014.95 1014.97 1014.94 1014.88 1014.84 1014.85 1014.92 1015.04 1015.20 1015.37 1015.53 1015.66 1015.77 1015.85 1015.93 1016.03 1016.14 1016.28 1016.42 1016.55 1016.65 1016.69 1016.67
1007.85 1007.61 1007.29 1006.95 1006.65 1006.44 1006.35 1006.39 1006.58 1006.88 1007.27 1007.73 1008.23 1008.75 1009.27 1009.79 1010.31 1010.84 1011.38 1011.93 1012.49 1013.04 1013.56 1014.01 1014.37 1014.64 1014.82 1014.91 1014.94 1014.95 1014.96 1014.99 1015.06 1015.17 1015.30 1015.45 1015.59 1015.72 1015.83 1015.92 1016.02 1016.12 1016.24 1016.37 1016.50 1016.63 1016.72 1016.77 1016.76
1008.44 1008.19 1007.87 1007.54 1007.25 1007.04 1006.94 1006.94 1007.06 1007.28 1007.59 1007.96 1008.37 1008.82 1009.29 1009.77 1010.26 1010.76 1011.27 1011.79 1012.30 1012.80 1013.27 1013.70 1014.08 1014.39 1014.63 1014.80 1014.92 1015.01 1015.08 1015.14 1015.22 1015.31 1015.42 1015.53 1015.64 1015.75 1015.87 1015.98 1016.09 1016.22 1016.36 1016.50 1016.64 1016.77 1016.86 1016.92 1016.93
1008.91 1008.68 1008.41 1008.14 1007.91 1007.75 1007.66 1007.64 1007.70 1007.83 1008.03 1008.29 1008.61 1008.98 1009.39 1009.83 1010.29 1010.76 1011.23 1011.70 1012.15 1012.60 1013.02 1013.42 1013.80 1014.14 1014.44 1014.69 1014.90 1015.07 1015.19 1015.29 1015.36 1015.42 1015.48 1015.55 1015.63 1015.72 1015.83 1015.96 1016.11 1016.27 1016.44 1016.61 1016.77 1016.91 1017.03 1017.09 1017.11
1009.22 1009.05 1008.87 1008.72 1008.60 1008.52 1008.47 1008.45 1008.45 1008.49 1008.57 1008.71 1008.93 1009.21 1009.57 1009.97 1010.41 1010.86 1011.31 1011.73 1012.13 1012.51 1012.88 1013.24 1013.60 1013.95 1014.30 1014.61 1014.89 1015.12 1015.29 1015.40 1015.45 1015.47 1015.48 1015.49 1015.52 1015.59 1015.70 1015.85 1016.03 1016.24 1016.45 1016.66 1016.85 1017.01 1017.13 1017.22 1017.25
1009.37 1009.29 1009.25 1009.26 1009.29 1009.33 1009.34 1009.32 1009.27 1009.21 1009.18 1009.20 1009.30 1009.50 1009.81 1010.19 1010.62 1011.07 1011.51 1011.91 1012.27 1012.60 1012.91 1013.22 1013.54 1013.88 1014.24 1014.59 1014.91 1015.17 1015.36 1015.46 1015.49 1015.46 1015.40 1015.34 1015.32 1015.36 1015.46 1015.63 1015.85 1016.10 1016.35 1016.59 1016.81 1016.99 1017.12 1017.22 1017.28
1009.40 1009.46 1009.60 1009.80 1010.00 1010.17 1010.26 1010.24 1010.14 1009.97 1009.81 1009.70 1009.69 1009.82 1010.08 1010.46 1010.91 1011.38 1011.83 1012.23 1012.57 1012.85 1013.10 1013.35 1013.62 1013.93 1014.28 1014.63 1014.96 1015.23 1015.42 1015.51 1015.49 1015.41 1015.28 1015.16 1015.09 1015.08 1015.17 1015.35 1015.59 1015.86 1016.15 1016.41 1016.64 1016.82 1016.96 1017.07 1017.14
1009.40 1009.62 1009.96 1010.36 1010.74 1011.04 1011.19 1011.18 1011.01 1010.73 1010.43 1010.19 1010.08 1010.13 1010.36 1010.74 1011.22 1011.74 1012.23 1012.64 1012.97 1013.22 1013.42 1013.61 1013.82 1014.08 1014.38 1014.71 1015.03 1015.30 1015.48 1015.55 1015.50 1015.37 1015.18 1015.00 1014.88 1014.83 1014.89 1015.06 1015.29 1015.58 1015.86 1016.13 1016.35 1016.52 1016.65 1016.75 1016.83
1009.44 1009.83 1010.37 1010.97 1011.52 1011.93 1012.13 1012.09 1011.85 1011.46 1011.03 1010.66 1010.44 1010.42 1010.63 1011.02 1011.54 1012.10 1012.64 1013.08 1013.41 1013.64 1013.79 1013.92 1014.06 1014.26 1014.52 1014.82 1015.12 1015.38 1015.55 1015.60 1015.54 1015.37 1015.15 1014.93 1014.75 1014.67 1014.69 1014.82 1015.04 1015.29 1015.56 1015.80 1015.99 1016.13 1016.23 1016.31 1016.39
1009.56 1010.13 1010.85 1011.61 1012.30 1012.78 1013.01 1012.94 1012.61 1012.11 1011.55 1011.07 1010.76 1010.68 1010.87 1011.27 1011.82 1012.43 1013.01 1013.48 1013.82 1014.03 1014.14 1014.21 1014.29 1014.43 1014.64 1014.90 1015.18 1015.43 1015.61 1015.67 1015.60 1015.44 1015.20 1014.95 1014.74 1014.61 1014.59 1014.68 1014.84 1015.06 1015.27 1015.46 1015.61 1015.70 1015.76 1015.81 1015.87
1009.79 1010.50 1011.37 1012.25 1013.02 1013.55 1013.77 1013.65 1013.25 1012.65 1011.99 1011.42 1011.03 1010.91 1011.07 1011.48 1012.06 1012.70 1013.31 1013.80 1014.14 1014.32 1014.40 1014.41 1014.44 1014.52 1014.68 1014.91 1015.18 1015.44 1015.63 1015.72 1015.68 1015.53 1015.30 1015.05 1014.82 1014.66 1014.59 1014.62 1014.73 1014.89 1015.04 1015.17 1015.26 1015.30 1015.31 1015.33 1015.37
1010.07 1010.89 1011.84 1012.79 1013.59 1014.13 1014.32 1014.17 1013.71 1013.04 1012.32 1011.69 1011.26 1011.11 1011.26 1011.67 1012.25 1012.90 1013.51 1014.00 1014.32 1014.48 1014.51 1014.48 1014.46 1014.49 1014.61 1014.82 1015.08 1015.35 1015.57 1015.70 1015.70 1015.59 1015.40 1015.16 1014.93 1014.75 1014.65 1014.63 1014.69 1014.78 1014.87 1014.95 1014.99 1014.99 1014.96 1014.95 1014.96
1010.36 1011.22 1012.19 1013.13 1013.92 1014.43 1014.60 1014.41 1013.93 1013.25 1012.52 1011.89 1011.46 1011.30 1011.44 1011.84 1012.41 1013.04 1013.62 1014.08 1014.37 1014.50 1014.49 1014.42 1014.34 1014.34 1014.42 1014.61 1014.87 1015.15 1015.39 1015.56 1015.62 1015.56 1015.42 1015.21 1015.00 1014.82 1014.70 1014.65 1014.66 1014.71 1014.77 1014.80 1014.81 1014.79 1014.76 1014.72 1014.72
1010.56 1011.40 1012.32 1013.20 1013.92 1014.39 1014.53 1014.35 1013.89 1013.26 1012.59 1012.01 1011.63 1011.50 1011.65 1012.02 1012.56 1013.14 1013.67 1014.08 1014.32 1014.40 1014.36 1014.24 1014.14 1014.09 1014.15 1014.31 1014.55 1014.83 1015.09 1015.29 1015.40 1015.39 1015.30 1015.15 1014.97 1014.82 1014.70 1014.65 1014.64 1014.67 1014.71 1014.74 1014.74 1014.73 1014.70 1014.68 1014.69
1010.63 1011.37 1012.18 1012.94 1013.57 1013.97 1014.11 1013.97 1013.60 1013.08 1012.54 1012.08 1011.79 1011.72 1011.89 1012.25 1012.73 1013.25 1013.71 1014.05 1014.23 1014.26 1014.18 1014.04 1013.90 1013.82 1013.84 1013.97 1014.18 1014.44 1014.69 1014.90 1015.03 1015.07 1015.03 1014.94 1014.81 1014.70 1014.62 1014.58 1014.59 1014.63 1014.68 1014.73 1014.77 1014.79 1014.80 1014.81 1014.84
1010.55 1011.14 1011.77 1012.39 1012.90 1013.25 1013.39 1013.33 1013.09 1012.75 1012.40 1012.11 1011.96 1011.98 1012.18 1012.53 1012.96 1013.40 1013.78 1014.05 1014.17 1014.16 1014.05 1013.88 1013.73 1013.62 1013.61 1013.68 1013.84 1014.05 1014.27 1014.45 1014.58 1014.65 1014.65 1014.61 1014.55 1014.49 1014.46 1014.47 1014.52 1014.60 1014.69 1014.78 1014.86 1014.93 1015.00 1015.06 1015.12
Thickness
5879 5881 5878 5867 5844 5827 5813 5820 5827 5823 5823 5832 5832 5823 5808 5801 5788 5773 5799 5807 5801 5792 5784 5779 5777 5775 5774 5773 5771 5770 5769 5767 5766 5765 5764 5763 5762 5761 5760 5759 5758 5757 5756 5756 5755 5754 5754 5753 5753
5887 5888 5877 5862 5834 5809 5808 5824 5822 5825 5832 5836 5831 5821 5808 5800 5805 5800 5803 5805 5802 5794 5786 5780 5776 5774 5773 5771 5770 5769 5767 5766 5765 5764 5763 5761 5760 5760 5759 5758 5756 5756 5755 5754 5753 5753 5752 5752 5751
5889 5891 5871 5855 5835 5815 5814 5829 5830 5836 5842 5834 5822 5819 5808 5799 5805 5803 5806 5808 5803 5794 5785 5778 5775 5773 5771 5770 5768 5767 5766 5765 5763 5762 5761 5760 5759 5758 5758 5756 5755 5754 5753 5753 5752 5751 5751 5750 5750
5890 5885 5874 5850 5828 5836 5836 5838 5841 5836 5837 5836 5825 5808 5809 5815 5811 5810 5812 5810 5802 5793 5784 5777 5774 5772 5770 5768 5767 5766 5765 5763 5762 5761 5760 5759 5758 5757 5756 5755 5754 5753 5753 5752 5751 5750 5749 5749 5749
5894 5876 5855 5837 5833 5845 5851 5852 5848 5834 5829 5827 5818 5800 5798 5814 5818 5816 5813 5809 5802 5794 5785 5777 5773 5771 5769 5767 5766 5764 5763 5762 5761 5760 5759 5758 5757 5756 5755 5753 5753 5752 5751 5750 5750 5749 5748 5748 5748
5883 5879 5847 5830 5835 5848 5854 5858 5849 5836 5830 5827 5815 5799 5797 5815 5815 5814 5813 5809 5804 5796 5786 5777 5773 5770 5768 5766 5765 5763 5762 5761 5760 5759 5758 5757 5756 5755 5754 5753 5752 5751 5750 5749 5749 5748 5747 5747 5747
5882 5872 5851 5843 5839 5843 5853 5862 5850 5838 5831 5830 5826 5803 5800 5811 5815 5815 5812 5809 5804 5798 5789 5781 5775 5771 5768 5766 5764 5762 5761 5760 5759 5758 5757 5756 5755 5754 5753 5752 5751 5750 5749 5748 5748 5747 5746 5746 5746
5904 5877 5855 5850 5842 5842 5859 5861 5856 5842 5832 5843 5838 5810 5799 5809 5817 5815 5810 5806 5801 5798 5793 5786 5781 5775 5770 5766 5764 5762 5761 5759 5758 5757 5756 5756 5755 5754 5752 5751 5750 5750 5749 5748 5747 5747 5746 5746 5746
5911 5871 5851 5852 5848 5850 5863 5855 5853 5852 5843 5836 5838 5828 5820 5820 5818 5810 5803 5799 5796 5794 5792 5789 5785 5779 5775 5770 5766 5763 5761 5760 5758 5757 5756 5756 5755 5754 5753 5752 5750 5749 5748 5748 5747 5747 5746 5746 5747
5895 5862 5860 5872 5870 5863 5863 5857 5852 5840 5829 5823 5823 5825 5824 5820 5813 5805 5798 5792 5790 5789 5790 5790 5786 5782 5778 5775 5769 5766 5764 5761 5760 5759 5758 5757 5756 5756 5754 5752 5750 5749 5749 5748 5748 5747 5747 5747 5749
5890 5872 5877 5881 5881 5875 5864 5861 5861 5843 5826 5825 5819 5817 5819 5815 5810 5804 5799 5795 5793 5792 5790 5789 5786 5782 5779 5775 5772 5769 5767 5764 5762 5761 5760 5759 5758 5756 5755 5753 5751 5750 5750 5750 5749 5749 5750 5751 5751
5886 5884 5886 5883 5885 5877 5868 5864 5857 5849 5840 5843 5836 5828 5821 5814 5808 5803 5799 5796 5794 5791 5789 5788 5784 5781 5777 5774 5772 5771 5769 5766 5764 5762 5761 5760 5759 5758 5757 5755 5754 5753 5753 5753 5752 5753 5753 5753 5753
5882 5882 5889 5890 5886 5881 5873 5861 5855 5850 5853 5850 5840 5830 5822 5815 5810 5807 5804 5799 5795 5790 5788 5786 5782 5778 5775 5773 5771 5771 5769 5767 5765 5763 5762 5761 5760 5760 5759 5758 5756 5756 5756 5755 5755 5755 5755 5755 5755
5884 5886 5886 5888 5883 5878 5863 5856 5851 5849 5855 5846 5837 5828 5824 5817 5813 5807 5803 5798 5793 5790 5787 5785 5781 5777 5773 5770 5769 5769 5768 5767 5765 5764 5763 5761 5760 5760 5759 5758 5758 5758 5758 5758 5757 5756 5756 5755 5755
5890 5875 5876 5881 5880 5876 5865 5842 5846 5856 5855 5842 5835 5830 5825 5820 5816 5809 5804 5799 5795 5791 5788 5784 5780 5777 5772 5770 5768 5768 5767 5767 5765 5764 5762 5761 5760 5759 5759 5759 5759 5759 5759 5759 5758 5758 5757 5757 5757
5880 5865 5855 5873 5879 5877 5855 5827 5850 5862 5851 5840 5836 5831 5824 5821 5819 5814 5809 5803 5798 5793 5788 5784 5783 5778 5773 5770 5768 5767 5767 5766 5765 5764 5762 5761 5760 5760 5759 5759 5759 5760 5759 5759 5759 5759 5757 5757 5756
5861 5851 5852 5864 5879 5875 5858 5837 5855 5865 5853 5841 5836 5831 5825 5819 5818 5815 5812 5805 5799 5794 5788 5784 5782 5777 5773 5770 5768 5766 5765 5765 5764 5764 5763 5762 5761 5760 5760 5759 5760 5760 5760 5760 5760 5759 5758 5756 5755
5845 5855 5856 5859 5875 5870 5854 5846 5857 5864 5855 5845 5839 5832 5825 5819 5817 5816 5812 5807 5801 5795 5789 5785 5781 5777 5774 5771 5767 5765 5764 5764 5764 5764 5763 5762 5762 5761 5760 5760 5760 5760 5760 5759 5759 5758 5758 5757 5756
5864 5858 5855 5865 5879 5866 5853 5848 5854 5860 5855 5845 5838 5832 5826 5823 5823 5819 5813 5808 5801 5795 5789 5785 5781 5777 5773 5769 5765 5762 5761 5762 5763 5764 5763 5762 5762 5762 5760 5760 5760 5760 5760 5759 5759 5758 5756 5755 5757
5865 5855 5855 5867 5877 5862 5847 5842 5854 5858 5854 5850 5842 5834 5829 5825 5821 5817 5812 5808 5801 5794 5789 5786 5781 5778 5774 5771 5768 5765 5764 5764 5764 5765 5764 5763 5763 5762 5762 5759 5759 5760 5759 5758 5758 5757 5754 5754 5757
5861 5855 5854 5855 5864 5863 5850 5832 5841 5854 5857 5854 5849 5842 5835 5828 5821 5816 5811 5806 5801 5795 5790 5788 5783 5779 5776 5773 5770 5767 5765 5764 5764 5763 5763 5763 5763 5763 5762 5761 5760 5760 5759 5757 5757 5756 5753 5751 5754
5850 5868 5863 5858 5847 5838 5847 5812 5827 5839 5843 5846 5844 5842 5837 5833 5825 5818 5812 5806 5802 5798 5794 5790 5784 5780 5777 5774 5770 5766 5761 5759 5761 5763 5764 5764 5763 5763 5762 5761 5760 5759 5759 5757 5757 5757 5755 5752 5749
5860 5874 5864 5857 5847 5837 5844 5823 5817 5839 5830 5836 5841 5841 5839 5835 5827 5819 5814 5809 5806 5802 5797 5791 5786 5781 5778 5775 5771 5767 5764 5763 5763 5764 5763 5763 5763 5763 5762 5762 5761 5759 5758 5757 5757 5757 5755 5754 5751
5870 5864 5860 5857 5847 5818 5833 5823 5808 5827 5831 5836 5839 5840 5840 5836 5829 5822 5818 5813 5807 5803 5798 5792 5785 5781 5778 5775 5772 5767 5764 5762 5761 5760 5760 5760 5762 5762 5762 5762 5760 5759 5758 5757 5756 5756 5755 5753 5752
5858 5838 5820 5815 5811 5810 5839 5826 5818 5842 5850 5846 5839 5839 5840 5836 5829 5822 5816 5811 5806 5802 5798 5793 5786 5780 5778 5775 5772 5769 5766 5763 5760 5759 5759 5759 5759 5759 5760 5761 5759 5758 5757 5756 5756 5754 5753 5752 5751
5848 5842 5814 5797 5798 5806 5829 5821 5830 5855 5860 5857 5850 5846 5842 5836 5832 5824 5818 5813 5808 5803 5798 5793 5786 5781 5778 5775 5772 5769 5767 5764 5762 5762 5761 5760 5759 5759 5760 5759 5757 5757 5756 5756 5754 5753 5752 5751 5750
5842 5842 5852 5833 5820 5806 5811 5820 5833 5852 5852 5851 5848 5843 5839 5836 5832 5825 5820 5815 5809 5803 5798 5793 5787 5782 5779 5776 5772 5769 5766 5763 5762 5761 5760 5759 5758 5758 5758 5757 5756 5755 5755 5754 5752 5750 5749 5748 5747
5856 5851 5842 5827 5806 5796 5806 5806 5808 5827 5836 5842 5841 5838 5837 5836 5832 5827 5822 5817 5811 5806 5800 5795 5789 5783 5780 5776 5773 5769 5766 5763 5761 5759 5757 5757 5756 5755 5754 5754 5753 5753 5752 5751 5749 5747 5747 5745 5744
5841 5839 5835 5832 5829 5809 5792 5793 5832 5832 5837 5840 5840 5840 5838 5835 5831 5824 5820 5819 5813 5808 5801 5794 5788 5783 5779 5776 5772 5768 5765 5763 5761 5758 5757 5755 5754 5753 5751 5750 5750 5749 5749 5748 5746 5744 5744 5741 5740
5850 5843 5837 5815 5815 5822 5809 5797 5842 5841 5843 5843 5841 5841 5839 5837 5832 5827 5821 5817 5812 5806 5799 5793 5788 5783 5779 5776 5772 5767 5764 5762 5759 5757 5755 5754 5752 5751 5749 5748 5746 5745 5745 5744 5742 5740 5739 5737 5735